Regional Weather Roundup
Issued by NWS

Home | Current Version | Previous Version | Text Only | Print | Product List | Glossary On
Versions: 1 2 3 4 5 6 7 8 9 10 11 12 13 14 15 16 17 18 19 20 21 22 23 24 25 26 27 28 29 30 31 32 33 34 35 36 37 38 39 40 41 42 43 44 45 46 47 48 49 50
000
ASUS45 KABQ 241310
RWRNM
NEW MEXICO REGIONAL WEATHER ROUNDUP
NATIONAL WEATHER SERVICE ALBUQUERQUE NM
700 AM MDT WED MAY 24 2017

NOTE: "FAIR" MEANS FEW OR NO CLOUDS BELOW 12,000 FEET AGL WITH NO
       SIGNIFICANT WEATHER OR OBSTRUCTIONS TO VISION.

      THIS PRODUCT IS RELEASED AS TWO VERSIONS.  ONE VERSION NEAR
      THE TOP OF THE HOUR CONTAINING PRELIMINARY DATA FROM ALBUQUERQUE
      AND OTHER STATIONS.  A FINAL VERSION WITH ADDITIONAL DATA IS
      ISSUED ABOUT 10 MINUTES AFTER THE HOUR.

NMZ501-503-504-510>518-241400-
NORTHWEST PLATEAU/NORTHCENTRAL MOUNTAINS

CITY           SKY/WX    TMP DP  RH WIND       PRES   REMARKS
FARMINGTON     FAIR      47  29  49 E6        30.03S
LOS ALAMOS     FAIR      46  31  56 CALM      30.12S
SANTA FE       FAIR      43  33  68 NW6       30.08R
TAOS           FAIR      37  18  44 CALM      30.14R
ANGEL FIRE     FAIR      32  28  87 CALM      30.15R

$$
NMZ402-403-502-505>509-241400-
WESTCENTRAL MOUNTAINS/SOUTHWEST MOUNTAINS

CITY           SKY/WX    TMP DP  RH WIND       PRES   REMARKS
GALLUP         FAIR      41  27  57 CALM      30.12S
GRANTS         FAIR      42  23  46 NW6       30.13S
SILVER CITY    FAIR      49  30  48 N6        30.08S

$$
NMZ407-409-411-412-241400-
SOUTHERN DESERTS

CITY           SKY/WX    TMP DP  RH WIND       PRES   REMARKS
DEMING         FAIR      56  37  49 CALM      30.04S
LAS CRUCES     FAIR      59  38  46 S7        30.05S
HOLLOMAN AFB   FAIR      54  35  49 E3        30.07R
ALAMOGORDO     FAIR      54  34  47 N6        30.04S
T OR C         FAIR      59  33  37 CALM      30.03R

$$
NMZ519>523-241400-
CENTRAL VALLEYS/CENTRAL HIGHLANDS

CITY           SKY/WX    TMP DP  RH WIND       PRES   REMARKS
ALBUQUERQUE    FAIR      51  33  50 NW5       30.07R
DOUBLE EAGLE   SUNNY     43  30  61 CALM      30.09R
MORIARTY ARPT  FAIR      36  30  79 CALM      30.10S
CLINES CORNERS FAIR      41  31  67 W7        30.09F
BELEN          FAIR      53  31  43 N3        30.07S
SOCORRO        FAIR      52  26  36 CALM      30.06R

$$
NMZ524>526-539-540-241400-
SOUTHCENTRAL MOUNTAINS

CITY           SKY/WX    TMP DP  RH WIND       PRES   REMARKS
RUIDOSO        FAIR      48  32  53 W9        30.11S HAZE

$$
NMZ527>531-241400-
NORTHEAST HIGHLANDS/NORTHEAST PLAINS

CITY           SKY/WX    TMP DP  RH WIND       PRES   REMARKS
LAS VEGAS      FAIR      43  32  65 S12       30.07F
RATON          FAIR      37  32  82 CALM      30.01F
CLAYTON        FAIR      49  37  63 W14G24    29.94F

$$
NMZ532>537-241400-
EASTCENTRAL PLAINS

CITY           SKY/WX    TMP DP  RH WIND       PRES   REMARKS
SANTA ROSA     FAIR      44  38  78 CALM      30.02F
TUCUMCARI      FAIR      51  42  71 W9        29.96F
CANNON AFB     FAIR      52  38  59 W9        30.01S
CLOVIS AIRPORT FAIR      50  37  62 W8        30.00R

$$
NMZ028-029-538-241400-
SOUTHEAST PLAINS

CITY           SKY/WX    TMP DP  RH WIND       PRES   REMARKS
ROSWELL        FAIR      51  33  50 CALM      30.01S
ARTESIA        FAIR      54  39  58 SW6       30.01F
CARLSBAD       FAIR      53  45  74 NE3       30.00S
HOBBS          SUNNY     54  37  54 SW8       30.03S


$$




USA.gov is the U.S. government's official web portal to all federal, state and local government web resources and services.